Вернуться в каталог

CZ-6A DEB

АктивенPO
NORAD 60849·DEBRIS·🇨🇳 China

Запущен Aug 6, 2024 с Taiyuan Satellite Launch Center

Loading…

Ближайшие Пролёты (ближайшие 24 часа)

TLE

СвежийSource: Space-Track

Эпоха: Sep 14, 2026, 07:06 UTC

1 60849U 24140JC  26257.29651120  .00001371  00000-0  21412-3 0  9991
2 60849  89.1244 270.7162 0144992 279.2141  79.2699 14.65439461111397

Отслеживайте CZ-6A DEB в реальном времени с AllMySat

Download on the App Store